Weather History for KHSE - December, 2011

Change the Weather History Date:

Friday, December 23, 2011

  Actual Average Record
Temperature  
Mean Temperature 61 °F 48 °F  
Max Temperature 67 °F 54 °F 75 °F (1990)
Min Temperature 54 °F 41 °F 23 °F (1989)
Degree Days  
Heating Degree Days 4 18  
Month to date heating degree days 224 343  
Since 1 July heating degree days 482 661  
Cooling Degree Days 0 0  
Month to date cooling degree days 3 0  
Year to date cooling degree days 2381 1711  
Growing Degree Days 14 (Base 50)    
Moisture  
Dew Point 56 °F    
Average Humidity 80    
Maximum Humidity 93    
Minimum Humidity 67    
Precipitation  
Precipitation 0.12 in 0.14 in 2.94 in (1980)
Month to date precipitation 0.96 3.14  
Year to date precipitation 61.11 56.91  
Snow  
Snow 0.00 in - - ()
Month to date snowfall 0.0  
Since 1 July snowfall 0.0  
Snow Depth 0.00 in    
Sea Level Pressure  
Sea Level Pressure 30.07 in    
Wind  
Wind Speed 11 mph (NW)    
Max Wind Speed 24 mph    
Max Gust Speed 32 mph    
Visibility 8 miles    
Events Rain    
T = Trace of Precipitation, MM = Missing Value Source: NWS Daily Summary

Daily Weather History Graph

Daily Weather History Graph

Search for Another Location

Airport or City:

Trip Planner

Search our weather history database for the weather conditions in past years. The results will help you decide how hot, cold, wet, or windy it might be!

Date:

Astronomy

Dec. 23, 2011 Rise Set
Actual Time 7:08 AM EST 4:54 PM EST
Civil Twilight 6:39 AM EST 5:23 PM EST
Nautical Twilight 6:07 AM EST 5:55 PM EST
Astronomical Twilight 5:36 AM EST 6:26 PM EST
Moon 5:54 AM EST (12/23) 4:01 PM EST (12/23)
Length of Visible Light 10h 43m
Length of Day
9h 46m
Waning Crescent, 1% of the Moon is Illuminated
Dec 23
Waning Crescent
Dec 24
New
Jan 1
First Quarter
Jan 9
Full
Jan 16
Last Quarter

Hourly Weather History & Observations

Time (EST) Temp. Dew Point Humidity Pressure Visibility Wind Dir Wind Speed Gust Speed Precip Events Conditions
12:01 AM 64.4 °F 62.6 °F 94% 30.04 in 8.0 mi SSW 10.4 mph - N/A   Mostly Cloudy
12:51 AM 66.0 °F 64.0 °F 93% 30.02 in 7.0 mi SW 15.0 mph 25.3 mph N/A   Overcast
1:51 AM 66.0 °F 64.0 °F 93% 30.02 in 5.0 mi SW 15.0 mph 20.7 mph 0.00 in Rain Light Rain
2:04 AM 66.2 °F 64.4 °F 94% 30.02 in 2.5 mi SW 15.0 mph 23.0 mph 0.02 in Rain Light Rain
2:10 AM 66.2 °F 64.4 °F 94% 30.01 in 1.2 mi SW 17.3 mph 27.6 mph 0.06 in Rain Heavy Rain
2:17 AM 66.2 °F 64.4 °F 94% 30.01 in 2.0 mi SW 19.6 mph 31.1 mph 0.12 in Rain Light Rain
2:23 AM 66.2 °F 64.4 °F 94% 30.01 in 5.0 mi SW 16.1 mph 31.1 mph 0.12 in Rain Light Rain
2:51 AM 66.0 °F 64.0 °F 93% 29.99 in 5.0 mi SW 18.4 mph 28.8 mph 0.12 in   Clear
3:51 AM 66.0 °F 64.0 °F 93% 29.96 in 7.0 mi SW 18.4 mph 28.8 mph N/A   Clear
4:51 AM 66.9 °F 64.0 °F 90% 29.93 in 6.0 mi SSW 20.7 mph 31.1 mph N/A   Scattered Clouds
5:51 AM 66.9 °F 64.9 °F 93% 29.99 in 5.0 mi SW 13.8 mph 24.2 mph N/A   Clear
6:51 AM 66.0 °F 63.0 °F 90% 30.01 in 5.0 mi WSW 12.7 mph 20.7 mph N/A   Scattered Clouds
7:51 AM 66.9 °F 64.0 °F 90% 30.04 in 4.0 mi WSW 13.8 mph 21.9 mph N/A   Mostly Cloudy
8:51 AM 66.0 °F 62.1 °F 87% 30.05 in 5.0 mi WSW 12.7 mph 19.6 mph N/A   Overcast
9:51 AM 66.9 °F 61.0 °F 81% 30.07 in 5.0 mi West 10.4 mph 21.9 mph N/A   Haze
10:51 AM 66.0 °F 61.0 °F 84% 30.07 in 5.0 mi West 8.1 mph - N/A   Haze
11:51 AM 66.9 °F 60.1 °F 79% 30.05 in 10.0 mi West 10.4 mph - N/A   Overcast
12:29 PM 57.2 °F 51.8 °F 82% 30.06 in 10.0 mi NNE 12.7 mph 20.7 mph N/A   Overcast
12:51 PM 57.0 °F 50.0 °F 77% 30.06 in 10.0 mi NE 8.1 mph 17.3 mph N/A   Overcast
1:51 PM 57.9 °F 50.0 °F 75% 30.06 in 10.0 mi NNE 6.9 mph - N/A   Mostly Cloudy
2:51 PM 57.0 °F 48.9 °F 74% 30.07 in 10.0 mi NNE 10.4 mph 16.1 mph N/A   Overcast
3:14 PM 57.2 °F 48.2 °F 72% 30.08 in 10.0 mi NE 10.4 mph 20.7 mph N/A   Overcast
3:44 PM 57.2 °F 48.2 °F 72% 30.09 in 10.0 mi NE 9.2 mph 18.4 mph N/A   Overcast
3:51 PM 57.0 °F 48.0 °F 72% 30.10 in 10.0 mi NE 11.5 mph 20.7 mph N/A   Overcast
4:34 PM 57.2 °F 48.2 °F 72% 30.11 in 10.0 mi NE 9.2 mph 19.6 mph N/A   Overcast
4:51 PM 57.0 °F 48.0 °F 72% 30.12 in 10.0 mi NNE 9.2 mph 17.3 mph N/A   Overcast
5:05 PM 73.4 °F 53.6 °F 50% - - North - - N/A   Unknown
5:51 PM 57.0 °F 48.0 °F 72% 30.14 in 10.0 mi NE 6.9 mph - N/A   Overcast
6:51 PM 57.0 °F 46.9 °F 69% 30.17 in 10.0 mi NNE 9.2 mph 18.4 mph N/A   Overcast
7:51 PM 55.9 °F 48.0 °F 75% 30.19 in 10.0 mi NNE 11.5 mph 17.3 mph N/A   Overcast
8:51 PM 55.9 °F 48.0 °F 75% 30.19 in 10.0 mi NE 8.1 mph - N/A   Overcast
9:51 PM 55.9 °F 48.0 °F 75% 30.18 in 10.0 mi NE 8.1 mph - N/A   Mostly Cloudy
10:51 PM 55.0 °F 46.9 °F 74% 30.19 in 10.0 mi NNE 5.8 mph - N/A   Partly Cloudy
11:51 PM 54.0 °F 48.0 °F 80% 30.20 in 10.0 mi North 8.1 mph - N/A   Clear